This is the latest recevied weather packets stored in our database for station/object VE6CWS-7. If no packets are shown the sender has not sent any weather packets the latest 10 day(s).
| Time | Temp. | Humidity | Pressure | Rain* | Wind** | Luminosity | Snow |
|---|---|---|---|---|---|---|---|
| 1777881602 | 9.44° C | 49% | 1013.3 hPa | 0 mm | - | - | - |
| 1777880759 | 10° C | 48% | 1013.3 hPa | 0 mm | - | - | - |
| 1777879877 | 10° C | 49% | 1013.1 hPa | 0 mm | - | - | - |
| 1777878953 | 9.44° C | 52% | 1013.2 hPa | 0 mm | - | - | - |
| 1777878109 | 9.44° C | 55% | 1013 hPa | 0 mm | - | - | - |
| 1777877156 | 9.44° C | 54% | 1012.8 hPa | 0 mm | - | - | - |
| 1777876263 | 10° C | 54% | 1012.6 hPa | 0 mm | - | - | - |
| 1777875348 | 10° C | 52% | 1012.4 hPa | 0 mm | - | - | - |
| 1777874503 | 10.56° C | 50% | 1012.5 hPa | 0 mm | - | - | - |
| 1777873542 | 10.56° C | 49% | 1012.3 hPa | 0 mm | - | - | - |
| 1777872642 | 11.11° C | 48% | 1012.3 hPa | 0 mm | - | - | - |
| 1777871740 | 11.11° C | 46% | 1012.2 hPa | 0 mm | - | - | - |
| 1777870900 | 11.67° C | 47% | 1012 hPa | 0 mm | - | - | - |
| 1777869939 | 12.22° C | 44% | 1012 hPa | 0 mm | - | - | - |
| 1777869041 | 12.22° C | 42% | 1011.4 hPa | 0 mm | - | - | - |
| 1777868137 | 12.78° C | 41% | 1011 hPa | 0 mm | - | - | - |
| 1777867295 | 12.78° C | 39% | 1010.7 hPa | 0 mm | - | - | - |
| 1777866353 | 13.33° C | 39% | 1010.4 hPa | 0 mm | - | - | - |
| 1777865451 | 13.33° C | 41% | 1009.8 hPa | 0 mm | - | - | - |
| 1777864552 | 13.33° C | 40% | 1009.6 hPa | 0 mm | - | - | - |
| 1777863711 | 13.89° C | 39% | 1009.1 hPa | 0 mm | - | - | - |
| 1777862749 | 13.89° C | 38% | 1008.9 hPa | 0 mm | - | - | - |
| 1777861847 | 13.89° C | 37% | 1008.8 hPa | 0 mm | - | - | - |
| 1777860944 | 14.44° C | 38% | 1008.7 hPa | 0 mm | - | - | - |
| 1777860105 | 14.44° C | 38% | 1008.6 hPa | 0 mm | - | - | - |
* Rain latest hour (hover to see other rain measurements)
** Current wind speed in m/s (hover to see current wind gust speed)